Lapse_Rate
-1.0 -0.5 1.0 2.3 2.6 3.0 3.2 3.6 5.0 7.1 6.9 5.6 6.1 6.5 5.6 5.8 4.8 5.2 5.4 5.7 6.1 5.5 6.2 6.5 6.6 7.0 6.8 6.7 7.4 7.2 5.6 4.5 3.9 4.1 7.1 8.1 8.2 6.4
0.1 0.2 0.8 1.3 1.8 1.7 1.8 2.5 3.3 4.6 7.1 6.9 8.0 8.4 8.4 6.7 6.8 7.9 6.7 6.7 6.0 6.9 7.5 7.0 7.4 7.3 7.2 7.6 7.5 7.7 7.5 6.0 5.2 4.8 5.4 7.5 8.0 8.3
-0.7 -0.1 0.9 1.5 1.6 1.2 1.4 2.2 2.6 3.9 7.4 8.0 8.2 7.2 6.2 5.4 5.7 5.7 6.8 7.1 6.8 6.4 6.1 7.0 7.0 7.0 6.8 6.6 7.0 7.6 7.9 8.4 8.3 7.7 8.1 8.4 8.4 8.5
-0.6 0.1 1.2 2.7 1.5 1.5 1.6 2.1 3.5 8.0 8.0 7.2 5.6 5.9 6.4 5.9 5.7 5.5 6.2 6.6 6.1 6.4 6.6 6.3 6.5 6.6 6.3 6.6 6.9 7.2 7.1 6.9 7.7 7.5 7.7 8.0 7.8 7.8
-0.2 0.5 1.2 1.5 1.5 1.4 2.0 3.1 4.8 7.1 6.8 6.1 4.8 6.4 7.9 8.0 6.5 6.3 7.1 6.9 7.7 8.5 7.7 7.2 6.7 6.4 7.2 7.1 7.2 6.9 6.6 6.5 6.7 6.9 6.9 7.0 7.0 5.8
0.0 0.1 0.8 1.5 1.9 2.3 2.7 3.3 5.2 5.6 5.5 6.3 6.9 7.6 7.5 7.7 7.9 7.4 7.2 7.7 7.8 7.4 8.4 8.4 7.8 7.8 7.7 6.9 6.8 6.9 6.5 6.6 5.9 5.8 6.0 5.8 5.3 5.1
-0.8 0.2 1.2 2.2 3.2 3.3 3.6 3.3 4.5 5.4 5.8 6.1 6.5 6.8 7.0 6.9 7.3 7.5 6.8 7.1 7.6 7.0 7.5 7.7 8.1 8.1 7.1 7.3 6.8 6.5 6.9 6.5 6.1 5.3 5.2 5.1 4.7 4.4
-1.2 -0.4 0.3 1.9 2.2 2.9 3.0 3.6 4.8 5.2 5.5 6.3 6.8 6.4 6.6 7.1 6.9 6.8 6.9 7.0 7.1 7.6 7.7 7.0 7.1 7.3 7.6 6.7 7.1 7.0 6.7 6.6 6.3 6.0 5.2 5.2 5.0 4.4
-0.7 -0.6 0.2 2.3 2.5 2.7 3.3 4.5 4.8 5.5 6.0 5.5 5.7 6.5 7.0 7.0 7.1 7.0 7.0 7.0 7.2 6.4 7.2 6.7 6.2 7.1 7.1 6.6 6.7 6.8 6.6 6.7 6.7 5.8 5.5 5.3 5.2 5.0
-0.5 -0.2 0.2 0.9 2.6 4.4 5.5 5.0 5.4 5.7 5.9 6.3 6.5 6.6 7.3 7.5 7.4 7.3 7.0 6.8 6.5 5.9 6.7 6.7 6.3 6.7 7.3 5.8 6.3 6.7 6.7 6.4 6.6 5.9 5.8 5.5 5.4 5.0
-0.9 0.6 1.4 1.9 2.8 4.6 4.8 5.1 4.7 4.9 5.7 5.8 5.8 6.4 7.6 7.4 7.5 7.2 6.9 6.7 6.9 6.3 6.1 6.5 7.1 7.1 6.3 5.6 3.2 6.4 5.8 5.7 5.4 5.6 5.5 5.7 5.6 4.9
-0.7 0.2 1.5 2.0 3.0 4.1 4.7 4.7 4.6 4.9 5.3 5.2 6.0 6.5 6.8 7.4 7.7 7.6 7.0 6.7 6.7 6.8 4.5 6.3 5.9 6.4 6.4 5.4 5.2 4.3 4.8 5.1 5.0 5.3 5.1 5.4 5.4 4.4
-0.2 0.8 1.7 2.5 3.4 4.0 4.7 4.6 5.8 6.0 5.6 5.2 5.8 6.1 6.0 6.6 7.1 6.6 6.1 6.0 6.1 6.2 6.0 5.6 5.9 6.2 6.7 6.9 6.2 5.1 5.0 4.8 4.4 4.0 4.1 4.1 4.6 4.7
0.6 1.2 1.8 3.3 3.2 3.8 3.8 4.6 5.1 4.9 6.0 5.8 5.6 5.9 6.5 6.6 6.7 6.2 6.0 6.0 5.3 5.2 5.0 4.9 5.7 6.0 5.8 5.4 6.0 5.7 5.2 4.1 3.5 3.2 3.0 3.4 4.2 4.2
0.1 1.7 3.3 2.7 2.4 2.4 4.5 5.5 4.3 5.2 6.7 6.2 5.6 5.7 6.4 6.4 6.2 6.5 6.5 6.7 5.7 5.7 5.3 5.0 5.0 5.3 5.8 6.0 6.0 5.5 4.3 4.1 3.9 3.6 3.4 3.2 3.5 3.4
0.1 0.2 1.1 1.2 2.8 4.6 5.7 5.6 5.4 5.6 6.5 6.3 5.4 5.4 5.2 5.8 6.3 6.2 5.7 5.9 5.6 6.1 5.7 4.5 4.9 5.1 5.9 5.8 5.1 4.4 4.2 4.2 3.8 3.6 3.4 3.7 3.8 3.6
1.6 2.2 1.3 3.4 4.8 5.3 6.4 6.6 5.7 5.8 5.7 5.7 5.5 5.7 5.6 6.3 6.6 6.2 6.0 6.0 6.5 6.8 6.0 5.4 4.9 5.4 5.3 5.4 4.7 4.7 3.9 3.5 3.6 3.5 3.0 3.7 4.1 3.9
2.4 3.5 2.7 3.3 6.0 6.6 7.1 7.3 6.6 6.1 5.8 5.5 5.7 5.9 5.7 6.5 6.3 6.5 6.6 7.0 6.8 5.5 5.8 6.1 5.3 5.0 5.9 5.7 5.5 4.6 3.8 3.3 3.6 3.6 3.0 3.8 4.3 4.0
3.1 4.2 4.9 5.1 6.5 7.0 7.1 7.2 7.2 6.5 6.0 5.5 5.7 5.5 5.8 6.1 6.1 6.5 6.9 5.8 5.3 5.1 4.9 4.8 5.0 5.2 5.3 5.9 5.4 5.5 4.6 4.4 3.9 3.4 3.3 3.4 4.2 4.4
4.1 5.6 5.7 6.0 6.5 7.0 7.0 7.0 7.0 6.5 5.6 5.0 5.4 5.6 5.9 5.9 6.1 6.7 5.9 5.4 6.5 5.8 5.0 4.3 4.6 4.6 4.1 4.9 5.2 4.9 4.8 4.5 4.3 4.2 3.9 3.8 3.5 4.0
3.4 4.8 5.6 6.1 6.6 6.7 6.8 6.8 7.0 7.0 6.0 5.2 5.0 5.2 5.5 5.7 6.3 6.6 5.9 5.3 5.6 5.2 4.5 4.5 4.5 4.5 4.2 4.4 3.4 4.2 4.3 4.4 4.0 3.9 3.8 3.9 3.0 3.7
3.5 4.3 4.9 5.1 6.5 6.5 6.6 6.7 6.8 6.7 5.4 4.9 4.5 4.4 5.0 5.5 6.3 6.5 5.8 5.8 5.6 5.5 4.3 4.2 4.3 4.7 4.3 4.3 4.4 4.3 4.6 4.5 4.9 4.5 4.1 3.8 3.4 4.1
2.4 3.3 3.9 5.3 6.1 6.4 6.6 6.6 6.7 6.3 5.1 4.6 4.1 4.1 4.0 5.6 5.8 5.8 5.6 5.3 5.4 4.1 4.1 3.5 4.2 4.0 3.9 4.0 4.0 4.3 4.1 4.0 4.8 4.7 5.2 5.2 4.9 4.7
Wind_Speed
5 6 3 3 3 3 3 3 3 8 9 2 6 11 15 17 20 22 20 23 29 26 27 29 29 31 30 29 26 28 29 29 28 28 28 25 26 26
4 6 4 3 4 3 3 3 2 5 7 7 9 12 18 19 20 21 19 27 25 26 26 29 29 32 30 28 27 26 26 25 26 25 26 25 25 26
5 6 6 5 5 3 4 4 3 4 10 10 10 10 13 14 14 21 20 18 19 26 29 28 29 29 28 28 27 27 26 26 26 27 23 24 25 27
7 6 6 6 7 5 4 7 5 8 9 16 13 11 11 12 13 14 13 17 18 22 28 29 28 26 27 27 27 27 27 26 26 28 21 22 24 24
5 5 6 7 6 5 7 6 7 7 8 10 12 10 11 12 11 11 10 12 19 25 25 25 23 27 28 27 25 25 26 25 26 21 21 21 22 21
5 5 6 7 7 8 9 9 8 9 9 10 12 11 10 11 10 10 11 9 11 16 19 19 23 26 26 25 24 24 25 27 24 23 22 20 19 20
5 5 7 13 16 15 8 10 10 11 10 10 9 11 12 12 11 9 11 11 10 9 9 10 10 10 13 20 19 21 23 24 24 23 23 22 19 19
7 8 8 12 13 19 19 19 15 12 13 9 10 13 15 14 12 11 10 11 8 7 11 11 8 9 9 13 23 22 19 18 21 22 21 19 18 19
6 6 7 9 14 9 14 19 15 18 16 10 13 14 15 13 13 13 12 11 11 11 10 10 8 8 8 13 22 18 17 18 20 19 19 18 17 17
6 6 6 8 10 12 14 13 12 13 11 10 13 14 14 14 13 12 14 13 10 9 7 9 7 8 8 10 16 13 16 18 18 18 17 17 17 16
5 9 7 9 16 22 14 14 14 12 18 23 24 28 28 28 23 10 9 10 11 10 6 4 6 9 7 6 5 12 12 15 17 16 17 17 17 15
7 8 14 13 21 21 11 10 13 13 13 13 12 14 19 18 21 10 9 10 10 9 3 6 8 4 4 1 3 3 7 13 15 17 18 18 18 7
5 6 7 19 21 20 18 9 12 13 13 10 10 9 9 9 8 10 9 8 9 9 11 6 4 7 3 6 2 2 4 6 5 9 16 18 17 13
6 6 7 19 19 18 12 16 18 12 8 9 9 10 10 10 10 10 15 14 13 10 15 10 4 5 4 3 3 2 3 6 5 6 6 13 14 19
5 10 18 16 17 11 13 16 10 8 8 8 11 9 10 10 11 10 12 16 13 14 12 5 2 5 5 4 4 4 3 4 6 7 6 7 7 6
7 7 8 9 10 9 8 8 7 7 8 8 9 11 8 10 9 8 9 9 8 5 6 5 4 6 5 5 5 4 6 4 6 6 6 7 9 7
7 4 3 7 9 8 7 8 7 8 8 8 8 11 11 10 8 9 6 8 6 6 6 4 5 6 10 7 4 6 6 5 6 7 6 8 10 9
5 6 6 7 8 10 8 8 8 10 8 8 9 9 10 9 9 9 6 7 7 7 7 6 4 3 3 6 18 6 5 4 6 7 7 7 10 11
6 7 7 7 8 8 8 8 9 8 10 9 9 9 9 8 10 8 7 7 6 5 6 6 5 3 5 5 4 23 4 5 5 7 7 6 7 9
6 6 6 7 8 8 8 8 8 8 8 9 8 9 8 8 7 7 6 6 6 7 7 6 7 6 4 3 3 5 26 5 4 5 6 5 4 17
5 5 6 7 7 8 8 8 9 8 8 8 8 8 8 7 7 5 5 7 6 5 5 6 5 6 1 1 4 6 6 23 20 6 2 4 4 6
4 5 6 7 7 8 8 8 8 8 8 7 8 8 8 8 6 5 3 3 3 4 3 3 5 5 5 5 6 5 5 6 18 29 31 21 2 4
3 5 6 6 6 7 8 8 8 7 8 8 7 7 8 8 6 4 2 2 2 2 2 3 4 5 6 5 5 5 8 8 6 8 11 25 26 25
Wind_Direction
8 9 351 322 345 356 354 337 336 326 324 337 333 335 321 320 319 321 319 317 324 314 316 319 318 322 322 321 318 320 319 317 314 308 300 302 304 306
6 356 341 331 352 347 339 313 302 301 304 331 321 319 319 315 316 319 309 317 313 314 316 317 318 322 321 321 319 319 320 320 317 313 304 304 307 306
2 4 349 343 340 328 329 318 295 304 306 306 307 314 316 316 320 319 314 312 314 317 319 320 320 318 319 322 321 318 319 320 320 318 309 311 311 310
1 356 342 347 330 315 313 308 287 315 317 310 313 316 315 316 314 314 316 316 314 315 323 315 316 320 324 321 316 318 320 317 317 316 311 311 310 308
348 337 325 329 317 307 320 316 314 310 312 306 309 317 318 322 315 312 317 319 321 321 320 318 317 317 319 318 317 318 322 323 323 319 318 312 311 312
333 321 321 328 314 333 326 320 318 318 314 316 316 317 319 324 320 320 321 318 319 318 319 318 311 312 317 320 318 317 320 321 324 325 324 320 319 316
328 335 340 336 339 331 324 321 320 322 322 321 315 317 322 326 324 321 313 318 315 308 318 316 309 307 308 318 310 304 315 321 324 324 326 324 324 323
336 335 331 333 329 321 319 319 322 322 319 315 311 315 317 321 318 317 314 319 322 308 316 307 304 299 302 312 309 317 320 322 324 325 324 324 322 322
318 312 321 324 317 311 319 324 320 321 315 303 304 309 309 313 311 312 313 310 309 305 303 304 301 299 304 309 311 319 323 319 323 327 327 327 326 326
301 298 299 305 314 320 328 327 327 324 318 315 315 311 301 302 302 304 304 298 295 293 300 297 307 299 306 301 303 304 319 327 333 335 337 337 336 336
312 306 315 319 316 330 335 334 332 330 330 325 310 299 301 302 301 310 316 315 313 315 306 287 308 310 290 285 299 304 331 341 343 343 345 346 351 340
329 316 322 323 328 335 339 334 334 330 324 314 309 304 302 303 305 311 312 312 313 317 260 314 312 320 306 278 296 343 351 351 347 353 352 349 353 350
308 320 325 323 332 339 342 330 328 326 317 314 316 319 321 320 321 317 306 302 305 302 303 315 307 313 285 316 327 25 2 354 351 354 356 355 0 8
305 310 313 327 335 336 332 321 333 325 322 323 328 333 332 325 323 316 308 302 294 286 295 304 295 330 316 299 314 336 32 9 356 350 351 351 357 7
297 306 320 332 319 316 323 340 333 329 326 328 335 329 322 314 314 317 313 311 307 296 304 346 340 321 322 303 310 357 345 4 358 358 352 360 1 359
311 305 310 314 301 303 316 336 338 331 328 328 329 325 319 329 324 323 320 324 320 321 4 358 344 352 352 17 25 17 15 20 346 352 352 11 12 11
326 317 332 340 341 336 329 336 338 339 335 333 327 331 334 331 330 330 325 328 334 345 347 343 5 73 51 27 21 22 18 14 3 356 5 25 22 15
327 341 328 318 333 338 330 333 336 338 337 331 329 332 334 330 330 329 330 342 352 357 358 2 357 10 11 44 38 19 17 2 358 5 16 31 31 19
344 337 332 326 329 326 326 329 328 330 334 334 329 328 323 329 330 330 357 356 358 1 6 1 4 20 50 45 359 22 9 359 358 23 25 31 32 29
342 325 322 322 321 322 324 328 324 324 335 330 329 326 324 328 330 341 12 351 1 24 30 23 30 31 43 23 15 16 31 14 358 21 22 24 27 30
320 317 316 312 318 321 320 319 320 320 329 326 332 325 324 324 336 354 4 357 18 23 25 24 3 350 336 19 42 30 22 33 47 31 342 21 25 31
303 312 313 312 315 318 317 318 318 323 328 330 330 324 319 319 327 343 8 353 11 27 25 15 14 29 46 54 53 31 24 17 41 54 55 55 21 55
305 312 310 309 314 313 314 319 317 322 322 325 323 320 316 319 324 325 334 24 18 23 16 30 41 49 46 46 48 40 30 25 34 49 50 47 59 64